Terminal Aerodrome Forecast
Issued by NWS

Home | Current Version | Previous Version | Text Only | Print | Product List | Glossary On
Versions: 1 2 3 4 5 6 7 8 9 10 11 12 13 14 15 16 17 18 19 20 21 22 23 24 25 26 27 28 29 30 31 32 33 34 35 36 37 38 39 40 41 42 43 44 45 46 47 48 49 50
000
FTUS42 KRAH 291136 CCA
TAFRWI
TAF COR
KRWI 291136Z 2912/3012 04007KT P6SM BKN035
      TEMPO 2912/2915 BKN009 OVC035
     FM291500 04005KT P6SM SCT015 BKN035
      TEMPO 2915/2919 BKN015
     FM300400 04005KT P6SM BKN005=

USA.gov is the U.S. government's official web portal to all federal, state and local government web resources and services.